Weather History for Garrison, ND

Change the Weather History Date:

Friday, June 28, 2013

  Actual Average Record
Temperature  
Mean Temperature 70 °F -  
Max Temperature 83 °F 74 °F 91 °F (2002)
Min Temperature 57 °F 52 °F 41 °F (2007)
Cooling Degree Days 5    
Month to date cooling degree days 44  
Year to date cooling degree days 50  
Since 1 June cooling degree days 44  
Growing Degree Days 20 (Base 50)    
Moisture  
Dew Point 55 °F    
Average Humidity 65    
Maximum Humidity 93    
Minimum Humidity 36    
Precipitation  
Precipitation 0.00 in - - ()
Month to date precipitation 6.01  
Year to date precipitation 16.69  
Sea Level Pressure  
Sea Level Pressure 30.07 in    
Wind  
Wind Speed 14 mph (NW)    
Max Wind Speed 25 mph    
Max Gust Speed 29 mph    
Averages and records for this station are not official NWS values.
T = Trace of Precipitation, MM = Missing Value Source: NWS Daily Summary

Daily Weather History Graph

Daily Weather History Graph

Search for Another Location

Airport:

Trip Planner

Search our weather history database for the weather conditions in past years. The results will help you decide how hot, cold, wet, or windy it might be!

Date:

Astronomy

Jun. 28, 2013 Rise Set
Actual Time 5:50 AM CDT 9:47 PM CDT
Civil Twilight 5:09 AM CDT 10:28 PM CDT
Nautical Twilight 4:13 AM CDT 11:24 PM CDT
Astronomical Twilight 2:44 AM CDT 12:52 AM CDT
Moon 12:20 AM CDT 12:28 PM CDT
Length of Visible Light 17h 18m
Length of Day
15h 57m
Waning Gibbous, 66% of the Moon is Illuminated
Jun 28
Waning Gibbous
Jun 29
Last Quarter
Jul 8
New
Jul 15
First Quarter
Jul 22
Full

Hourly Weather History & Observations

Time (CDT) Temp. Heat Index Dew Point Humidity Pressure Visibility Wind Dir Wind Speed Gust Speed Precip Events Conditions
12:52 AM 61.0 °F - 57.0 °F 87% 30.04 in - NW 8.1 mph - N/A   Unknown
1:52 AM 62.1 °F - 55.9 °F 80% 30.04 in - WNW 6.9 mph - N/A   Unknown
2:52 AM 60.1 °F - 55.9 °F 86% 30.04 in - NW 9.2 mph - N/A   Unknown
3:52 AM 59.0 °F - 55.0 °F 87% 30.04 in - NW 9.2 mph - N/A   Unknown
4:52 AM 57.9 °F - 55.9 °F 93% 30.06 in - NW 10.4 mph - N/A   Unknown
5:52 AM 57.0 °F - 55.0 °F 93% 30.07 in - NW 9.2 mph - N/A   Unknown
6:52 AM 60.1 °F - 55.9 °F 86% 30.08 in - NNW 10.4 mph - N/A   Unknown
7:52 AM 64.9 °F - 59.0 °F 81% 30.09 in - NW 10.4 mph - N/A   Unknown
8:52 AM 70.0 °F - 59.0 °F 68% 30.10 in - NW 11.5 mph - N/A   Unknown
9:52 AM 73.0 °F - 57.9 °F 59% 30.10 in - NW 9.2 mph - N/A   Unknown
10:52 AM 77.0 °F - 55.0 °F 47% 30.09 in - NW 16.1 mph 21.9 mph N/A   Unknown
11:52 AM 79.0 °F - 55.9 °F 45% 30.09 in - NNW 11.5 mph 23.0 mph N/A   Unknown
12:52 PM 80.1 °F 80.1 °F 55.0 °F 42% 30.09 in - NW 19.6 mph - N/A   Unknown
1:52 PM 80.1 °F 80.0 °F 54.0 °F 40% 30.08 in - NNW 17.3 mph - N/A   Unknown
2:52 PM 82.0 °F 81.4 °F 55.0 °F 39% 30.07 in - NW 18.4 mph 26.5 mph N/A   Unknown
3:52 PM 80.1 °F 79.9 °F 53.1 °F 39% 30.07 in - NNW 20.7 mph - N/A   Unknown
4:52 PM 82.9 °F 81.9 °F 54.0 °F 37% 30.06 in - NNW 21.9 mph 27.6 mph N/A   Unknown
5:52 PM 81.0 °F 80.5 °F 54.0 °F 39% 30.06 in - NW 21.9 mph 27.6 mph N/A   Unknown
6:52 PM 80.1 °F - 51.1 °F 36% 30.06 in - NNW 19.6 mph 26.5 mph N/A   Unknown
7:52 PM 78.1 °F - 52.0 °F 40% 30.06 in - NNW 16.1 mph 21.9 mph N/A   Unknown
8:52 PM 73.9 °F - 53.1 °F 48% 30.07 in - NNW 11.5 mph - N/A   Unknown
9:52 PM 66.9 °F - 55.0 °F 66% 30.07 in - NNW 6.9 mph - N/A   Unknown
10:52 PM 63.0 °F - 55.0 °F 75% 30.08 in - NW 8.1 mph - N/A   Unknown
11:52 PM 61.0 °F - 55.0 °F 81% 30.07 in - NW 9.2 mph - N/A   Unknown